Prescott, AZ

8:08 AM MST on October 16, 2019 (GMT -0700)
Love

Weather History for KPRC - August, 2019

Change the Weather History Date:

Thursday, August 15, 2019

  Actual Average Record
Temperature  
Mean Temperature 80 °F 74 °F  
Max Temperature 97 °F 87 °F 99 °F (1996)
Min Temperature 63 °F 61 °F 45 °F (1968)
Degree Days  
Heating Degree Days 0    
Month to date heating degree days 0  
Since 1 July heating degree days 0  
Cooling Degree Days 15    
Month to date cooling degree days 189  
Year to date cooling degree days 757  
Growing Degree Days 30 (Base 50)    
Moisture  
Dew Point 27 °F    
Average Humidity 17    
Maximum Humidity 37    
Minimum Humidity 5    
Precipitation  
Precipitation 0.00 in 0.09 in 0.42 in (1984)
Month to date precipitation 0.30 1.35  
Year to date precipitation 8.11 8.39  
Sea Level Pressure  
Sea Level Pressure 29.91 in    
Wind  
Wind Speed 8 mph (SW)    
Max Wind Speed 20 mph    
Max Gust Speed 24 mph    
Visibility 10 miles    
Events      
T = Trace of Precipitation, MM = Missing Value Source: NWS Daily Summary

Daily Weather History Graph

Daily Weather History Graph

Search for Another Location

Airport or City:

Astronomy

Aug. 15, 2019 Rise Set
Actual Time 5:50 AM MST 7:17 PM MST
Civil Twilight 5:23 AM MST 7:44 PM MST
Nautical Twilight 4:51 AM MST 8:16 PM MST
Astronomical Twilight 4:17 AM MST 8:49 PM MST
Moon 7:47 PM MST (8/15) 5:50 AM MST (8/15)
Length of Visible Light 14h 20m
Length of Day
13h 27m
Full, 100% of the Moon is Illuminated
Aug 15
Full
Aug 23
Last Quarter
Aug 30
New
Sep 5
First Quarter
Sep 13
Full

Hourly Weather History & Observations

Time (MST) Temp. Dew Point Humidity Pressure Visibility Wind Dir Wind Speed Gust Speed Precip Events Conditions
12:53 AM 69.1 °F 32.0 °F 25% 29.93 in 10.0 mi Calm Calm - N/A   Clear
1:53 AM 69.1 °F 35.1 °F 29% 29.91 in 10.0 mi SSW 3.5 mph - N/A   Clear
2:53 AM 66.0 °F 35.1 °F 32% 29.91 in 10.0 mi SSW 5.8 mph - N/A   Clear
3:53 AM 66.0 °F 36.0 °F 33% 29.92 in 10.0 mi SW 3.5 mph - N/A   Clear
4:53 AM 64.9 °F 35.1 °F 33% 29.93 in 10.0 mi SSW 9.2 mph - N/A   Clear
5:53 AM 64.0 °F 37.9 °F 38% 29.95 in 10.0 mi South 5.8 mph - N/A   Clear
6:53 AM 68.0 °F 37.9 °F 33% 29.96 in 10.0 mi SSW 3.5 mph - N/A   Clear
7:53 AM 78.1 °F 37.0 °F 23% 29.96 in 10.0 mi Calm Calm - N/A   Clear
8:53 AM 84.9 °F 28.9 °F 13% 29.96 in 10.0 mi NNE 3.5 mph - N/A   Clear
9:53 AM 89.1 °F 26.1 °F 10% 29.96 in 10.0 mi NNE 4.6 mph - N/A   Clear
10:53 AM 91.9 °F 28.0 °F 10% 29.95 in 10.0 mi Variable 6.9 mph - N/A   Clear
11:53 AM 93.0 °F 28.9 °F 10% 29.92 in 10.0 mi Calm Calm - N/A   Clear
12:53 PM 93.0 °F 27.0 °F 9% 29.91 in 10.0 mi Variable 6.9 mph - N/A   Clear
1:53 PM 96.1 °F 27.0 °F 9% 29.88 in 10.0 mi SSW 16.1 mph 19.6 mph N/A   Clear
2:53 PM 96.1 °F 28.0 °F 9% 29.86 in 10.0 mi SSW 12.7 mph 19.6 mph N/A   Clear
3:53 PM 96.1 °F 25.0 °F 8% 29.84 in 10.0 mi SW 17.3 mph 20.7 mph N/A   Clear
4:53 PM 95.0 °F 17.1 °F 6% 29.83 in 10.0 mi West 19.6 mph 24.2 mph N/A   Clear
5:46 PM 93.0 °F 14.0 °F 5% 30.11 in 10.0 mi WSW 12.7 mph - N/A   Partly Cloudy
5:53 PM 93.0 °F 12.9 °F 5% 29.84 in 10.0 mi West 15.0 mph - N/A   Clear
6:53 PM 88.0 °F 15.1 °F 7% 29.84 in 10.0 mi WSW 9.2 mph - N/A   Clear
7:53 PM 81.0 °F 18.0 °F 10% 29.84 in 10.0 mi SW 5.8 mph - N/A   Clear
8:53 PM 77.0 °F 21.0 °F 12% 29.86 in 10.0 mi SSW 8.1 mph - N/A   Clear
9:53 PM 77.0 °F 19.9 °F 12% 29.86 in 10.0 mi SSW 10.4 mph - N/A   Clear
10:53 PM 75.0 °F 24.1 °F 15% 29.85 in 10.0 mi South 8.1 mph - N/A   Clear
11:53 PM 72.0 °F 28.9 °F 20% 29.86 in 10.0 mi South 5.8 mph - N/A   Clear